[[{"header":{"parameterUnit":"m.s-1","parameterCategory":1,"la1":30.2991,"la2":30.254,"lo1":-89.0895,"lo2":-89.0444,"dy":0.0017,"dx":0.0017,"nx":28,"ny":28,"refTime":"2023-09-26T09:00:00:Z","depth":0,"parameterNumber":2,"parameterNumberName":"U-component_of_WINDS"},"data":[0,0,0,0,0,0,0,0,0,0,0,0,0,0,0,0,0,0,0,0,0,0,0,0,0,0,0,0,0,0,0,0,0,0,0,0,0,0,0,0,0,0,0,0,0,0,0,0,0,0,0,0,0,0,0,0,0,0,-4.9983,-4.9983,0,-5.0014,-5.0014,-5.0015,-4.9883,-4.9879,-4.9875,-4.9872,-4.9904,-4.9908,-4.9913,0,0,0,0,0,0,0,0,0,0,0,0,0,-4.9808,-4.9812,-4.9982,-4.9983,-4.9983,-5.0014,-5.0014,-5.0015,-4.9884,-4.9879,-4.9875,-4.987,-4.9903,-4.9908,-4.9913,0,0,0,0,0,0,0,0,0,0,0,0,0,-4.9866,-4.9813,-4.9982,-4.9922,-4.9917,-5.0014,-5.0014,-5.0015,-4.9885,-4.9879,-4.9873,-4.9868,-4.9901,-4.9907,-4.9914,-5.0071,0,0,-4.9934,-4.9937,0,0,0,0,0,0,0,0,-4.9863,-4.9872,-4.993,-4.9926,-4.992,-4.9939,-4.9964,-5.0034,-4.9886,-4.9897,-4.9872,-4.9865,-4.992,-4.9925,-4.9944,-5.0072,-5.0074,-4.9935,-4.9939,-4.9942,-4.9944,0,0,0,0,0,0,0,-4.9859,-4.987,-4.9995,-4.9931,-4.9925,-4.9892,-4.9894,-4.9977,-4.9941,-4.9896,-4.9886,-4.9892,-4.9916,-4.9937,-4.9943,-5.0074,-4.9935,-4.9941,-4.9945,-4.9947,-5.033,-5.0336,0,0,0,0,0,0,-4.9863,-4.9868,-4.9994,-4.9996,-4.9877,-4.99,-4.9902,-4.9939,-4.9939,-4.9934,-4.9897,-4.9885,-4.9929,-4.9936,-4.9944,-5.0125,-4.9942,-4.9948,-4.9952,-5.0324,-5.0331,-5.0338,0,0,0,0,0,0,-4.986,-4.9876,-4.9992,-4.9929,-4.9942,-4.9909,-4.9951,-4.9942,-4.9963,-4.994,-4.9933,-4.9925,-4.9925,-4.9935,-5.0039,-5.0124,-4.9951,-4.9957,-5.0317,-5.0326,-5.0335,-5.049,0,0,0,0,0,0,-4.9855,-4.9875,-4.9935,-4.9932,-4.9946,-5.0089,-4.9957,-4.9947,-4.9975,-4.9961,-4.9965,-4.996,-4.9921,-5.003,-5.0046,-5.013,-4.9962,-5.0309,-5.0321,-5.0332,-5.0477,-5.0503,-5.0526,0,0,0,0,0,-4.985,-4.9978,-4.9939,-4.9955,-5.002,-5.0094,-5.0102,-5.0054,-4.9982,-5.0041,-5.0026,-4.996,-5.0113,-5.0042,-5.0059,-5.0146,-5.0303,-5.0317,-5.0331,-5.0466,-5.0498,-5.0525,0,0,0,0,0,0,-4.9993,-4.9977,-4.9933,-5.0064,-5.0081,-5.0071,-5.0145,-5.009,-5.0128,-5.0113,-5.0053,-5.0055,-5.017,-5.0169,-5.009,-5.0297,-5.0195,-5.0213,-5.0292,-5.0323,-5.0347,-5.0343,-4.9968,0,0,0,0,0,-5.004,-5.0102,-5.0084,-5.0202,-5.0213,-5.0178,-5.0208,-5.017,-5.0185,-5.0192,-5.0184,-5.0202,-5.0253,-5.0288,-5.0335,-5.0477,-5.0474,-5.0545,-5.057,-5.059,-5.0605,-5.0677,-5.0707,-5.0383,-5.0383,-5.0383,0,0,-5.0137,-5.0136,-5.0179,-5.0231,-5.0239,-5.0303,-5.0185,-5.0258,-5.0304,-5.0203,-5.03,-5.0296,-5.0311,-5.0434,-5.0489,-5.0437,-5.0694,-5.0607,-5.0624,-5.0628,-5.0694,-5.0725,-5.0752,-5.0393,-5.0391,-5.039,0,0,-5.0347,-5.0354,-5.045,-5.0461,-5.0476,-5.0451,-5.0475,-5.0473,-5.0466,-5.0563,-5.0487,-5.0542,-5.0633,-5.0645,-5.0664,-5.0877,-5.0816,-5.0894,-5.1021,-5.1091,-5.1117,-5.1139,-5.1212,-5.1239,-5.091,-5.0911,-5.0911,0,-5.0466,-5.056,-5.0507,-5.0585,-5.0609,-5.052,-5.0616,-5.063,-5.0659,-5.0677,-5.062,-5.073,-5.0734,-5.0858,-5.0909,-5.0929,-5.0952,-5.0892,-5.1117,-5.1139,-5.1159,-5.1228,-5.1256,-5.092,-5.0919,-5.0918,-5.0917,0,-5.0704,-5.077,-5.0846,-5.0875,-5.0908,-5.0996,-5.0955,-5.0995,-5.0954,-5.0936,-5.1035,-5.1036,-5.108,-5.1107,-5.1069,-5.1225,-5.1192,-5.1128,-5.1024,-5.12,-5.1263,-5.1289,-5.0933,-5.093,-5.0927,-5.0925,0,0,-5.1003,-5.1001,-5.103,-5.104,-5.105,-5.1099,-5.1182,-5.1224,-5.1258,-5.1281,-5.1347,-5.1426,-5.1365,-5.1386,-5.1348,-5.1411,-5.1576,-5.1338,-5.1337,-5.1379,-5.1744,-5.179,-5.1821,-5.1536,-5.1541,-5.1545,-5.1741,0,-5.1205,-5.1345,-5.13,-5.1442,-5.15,-5.1416,-5.1488,-5.15,-5.1486,-5.1533,-5.1516,-5.1571,-5.1489,-5.15,-5.1559,-5.1543,-5.1647,-5.1529,-5.1595,-5.1598,-5.159,-5.1855,-5.1904,-5.2089,-5.1766,-5.177,-5.1773,0,-5.146,-5.1492,-5.1639,-5.1635,-5.1658,-5.1723,-5.1756,-5.1804,-5.1816,-5.18,-5.1824,-5.1772,-5.1852,-5.1751,-5.1858,-5.1778,-5.1803,-5.1799,-5.1805,-5.1807,-5.1694,-5.186,-5.2147,-5.2174,-5.1812,-5.1809,-5.1806,0,-5.1659,-5.1739,-5.1836,-5.1849,-5.1848,-5.1895,-5.1897,-5.1903,-5.1931,-5.1961,-5.1977,-5.2017,-5.2038,-5.207,-5.2029,-5.196,-5.2142,-5.2038,-5.2129,-5.213,-5.2168,-5.2165,-5.246,-5.2191,-5.219,-5.219,-5.2189,0,-5.1887,-5.198,-5.1925,-5.1984,-5.2085,-5.2032,-5.2133,-5.2125,-5.2132,-5.2187,-5.2119,-5.2172,-5.2118,-5.2167,-5.2136,-5.2228,-5.2239,-5.2227,-5.2217,-5.2231,-5.2232,-5.2243,-5.2228,-5.2197,-5.2195,-5.2194,-5.2193,0,-5.2125,-5.2093,-5.2192,-5.2183,-5.2183,-5.2257,-5.2248,-5.2302,-5.2283,-5.2354,-5.2368,-5.2337,-5.239,-5.2354,-5.2408,-5.2388,-5.2506,-5.2481,-5.2502,-5.2493,-5.2584,-5.2575,-5.2893,-5.2931,-5.2642,-5.2645,-5.2647,0,-5.2271,-5.234,-5.2337,-5.2369,-5.2375,-5.2429,-5.2456,-5.2407,-5.2438,-5.2456,-5.2508,-5.2555,-5.259,-5.2679,-5.2661,-5.2701,-5.2673,-5.2782,-5.2679,-5.2689,-5.267,-5.2665,-5.267,-5.2802,-5.2805,-5.2808,-5.281,0,-5.2532,-5.2512,-5.2554,-5.259,-5.2624,-5.2651,-5.2671,-5.2702,-5.2652,-5.269,-5.2743,-5.2771,-5.2825,-5.2872,-5.2905,-5.2906,-5.285,-5.2844,-5.2866,-5.2879,-5.2886,-5.2879,-5.2554,-5.2836,-5.2833,-5.2831,-5.283,-5.2829,-5.2726,-5.2781,-5.2788,-5.2836,-5.2846,-5.2866,-5.2916,-5.2902,-5.2945,-5.2984,-5.2954,-5.3016,-5.3025,-5.3063,-5.3072,-5.3119,-5.3075,-5.3108,-5.3116,-5.3124,-5.3135,-5.2882,-5.3126,-5.3125,-5.3124,-5.3124,-5.3123,0,-5.298,-5.2979,-5.3024,-5.3054,-5.3092,-5.3036,-5.3056,-5.309,-5.3146,-5.3159,-5.3195,-5.3255,-5.33,-5.3285,-5.3325,-5.3365,-5.334,-5.3377,-5.3371,-5.3372,-5.3174,-5.3149,-5.3397,-5.3397,-5.3396,-5.3396,-5.3396,-5.3396,-5.3116,-5.3206,-5.3187,-5.3281,-5.328,-5.334,-5.3355,-5.3373,-5.3382,-5.3452,-5.3489,-5.3479,-5.348,-5.3519,-5.3558,-5.3552,-5.3568,-5.3614,-5.3599,-5.3414,-5.3386,-5.336,-5.3336,-5.3619,-5.3619,-5.3791,-5.3793,-5.3794]},{"header":{"parameterUnit":"m.s-1","parameterCategory":1,"la1":30.2991,"la2":30.254,"lo1":-89.0895,"lo2":-89.0444,"dy":0.0017,"dx":0.0017,"nx":28,"ny":28,"refTime":"2023-09-26T09:00:00:Z","depth":0,"parameterNumber":3,"parameterNumberName":"V-component_of_WINDS"},"data":[0,0,0,0,0,0,0,0,0,0,0,0,0,0,0,0,0,0,0,0,0,0,0,0,0,0,0,0,0,0,0,0,0,0,0,0,0,0,0,0,0,0,0,0,0,0,0,0,0,0,0,0,0,0,0,0,0,0,-1.0817,-1.0816,0,-1.0739,-1.0738,-1.0737,-1.0741,-1.0742,-1.0743,-1.0744,-1.0659,-1.0656,-1.0653,0,0,0,0,0,0,0,0,0,0,0,0,0,-1.0963,-1.096,-1.0817,-1.0816,-1.0815,-1.0739,-1.0738,-1.0737,-1.0741,-1.0742,-1.0743,-1.0745,-1.066,-1.0657,-1.0653,0,0,0,0,0,0,0,0,0,0,0,0,0,-1.0893,-1.0959,-1.0817,-1.0808,-1.0806,-1.0739,-1.0738,-1.0737,-1.074,-1.0742,-1.0744,-1.0745,-1.0662,-1.0657,-1.0652,-1.0588,0,0,-1.0637,-1.0635,0,0,0,0,0,0,0,0,-1.0897,-1.0888,-1.081,-1.0808,-1.0806,-1.0751,-1.0758,-1.0687,-1.074,-1.0765,-1.0744,-1.0746,-1.0688,-1.0681,-1.0663,-1.0584,-1.058,-1.0637,-1.0634,-1.0631,-1.063,0,0,0,0,0,0,0,-1.0902,-1.0891,-1.0786,-1.0809,-1.0807,-1.0805,-1.0797,-1.0745,-1.0718,-1.0763,-1.0763,-1.0754,-1.0688,-1.0668,-1.0661,-1.0579,-1.0637,-1.0632,-1.0629,-1.0627,-1.044,-1.0438,0,0,0,0,0,0,-1.091,-1.0895,-1.0788,-1.0784,-1.0857,-1.0801,-1.0793,-1.0767,-1.0719,-1.0713,-1.0753,-1.0755,-1.0675,-1.0667,-1.0658,-1.0577,-1.0631,-1.0627,-1.0624,-1.0442,-1.0439,-1.0437,0,0,0,0,0,0,-1.0913,-1.09,-1.0792,-1.0839,-1.0826,-1.0797,-1.0769,-1.0765,-1.0745,-1.0711,-1.0706,-1.0738,-1.0676,-1.0665,-1.0605,-1.0574,-1.0625,-1.062,-1.0444,-1.0441,-1.0438,-1.0416,0,0,0,0,0,0,-1.0917,-1.0901,-1.0878,-1.0839,-1.0823,-1.0742,-1.0767,-1.0762,-1.0737,-1.0739,-1.0695,-1.069,-1.0677,-1.0612,-1.06,-1.0568,-1.0616,-1.0447,-1.0443,-1.0439,-1.042,-1.0413,-1.0407,0,0,0,0,0,-1.0922,-1.0875,-1.0877,-1.0864,-1.0794,-1.074,-1.0731,-1.0718,-1.0735,-1.071,-1.0688,-1.0691,-1.058,-1.0606,-1.0592,-1.0559,-1.0449,-1.0444,-1.0439,-1.0422,-1.0414,-1.0407,0,0,0,0,0,0,-1.091,-1.087,-1.0872,-1.0811,-1.0779,-1.0741,-1.071,-1.071,-1.0672,-1.0675,-1.0659,-1.0649,-1.0588,-1.0568,-1.0597,-1.0492,-1.0516,-1.0508,-1.0508,-1.05,-1.0494,-1.0499,-1.0612,0,0,0,0,0,-1.0901,-1.0863,-1.0828,-1.0778,-1.0762,-1.0738,-1.0714,-1.0707,-1.0673,-1.0659,-1.0633,-1.0597,-1.0554,-1.0526,-1.0485,-1.0417,-1.0406,-1.0387,-1.0381,-1.0376,-1.0369,-1.0328,-1.0318,-1.0422,-1.0422,-1.0422,0,0,-1.0881,-1.0854,-1.083,-1.0775,-1.0749,-1.0707,-1.0727,-1.0682,-1.065,-1.0652,-1.0593,-1.0572,-1.0532,-1.0467,-1.0437,-1.0448,-1.0338,-1.037,-1.0366,-1.0362,-1.0322,-1.0312,-1.0304,-1.0419,-1.042,-1.042,0,0,-1.0822,-1.0799,-1.0753,-1.0726,-1.0688,-1.0672,-1.0661,-1.0622,-1.0608,-1.055,-1.0549,-1.051,-1.0437,-1.0407,-1.0382,-1.0309,-1.031,-1.0296,-1.0263,-1.0223,-1.0215,-1.0208,-1.0179,-1.0169,-1.029,-1.029,-1.029,0,-1.0801,-1.0739,-1.0728,-1.0683,-1.0657,-1.0658,-1.0609,-1.0583,-1.0533,-1.0513,-1.0527,-1.0433,-1.0406,-1.0333,-1.0315,-1.0296,-1.028,-1.03,-1.0218,-1.021,-1.0203,-1.0175,-1.0164,-1.0288,-1.0288,-1.0288,-1.0289,0,-1.0714,-1.0671,-1.0638,-1.0589,-1.056,-1.0513,-1.0493,-1.0464,-1.0459,-1.0441,-1.0379,-1.0346,-1.0297,-1.0279,-1.0274,-1.0204,-1.0211,-1.0222,-1.0245,-1.0192,-1.0165,-1.0154,-1.0286,-1.0286,-1.0287,-1.0287,0,0,-1.0645,-1.059,-1.0578,-1.0555,-1.0511,-1.0477,-1.0428,-1.0381,-1.0355,-1.032,-1.0277,-1.0214,-1.0222,-1.0194,-1.0185,-1.015,-1.0091,-1.0164,-1.0163,-1.0149,-1.0007,-0.9999,-0.9987,-1.0091,-1.0089,-1.0088,-1.001,0,-1.058,-1.0496,-1.0484,-1.0409,-1.0367,-1.0366,-1.0323,-1.029,-1.0272,-1.0232,-1.0211,-1.0165,-1.0181,-1.0164,-1.013,-1.0105,-1.0061,-1.0111,-1.0048,-1.0046,-1.0056,-0.9973,-0.9964,-0.9892,-1.0,-0.9998,-0.9997,0,-1.0492,-1.0455,-1.0376,-1.0335,-1.0317,-1.0279,-1.0233,-1.0196,-1.0158,-1.0146,-1.0114,-1.0108,-1.0055,-1.0082,-1.0007,-1.0041,-1.0014,-0.9998,-0.9995,-0.9987,-1.0017,-0.996,-0.987,-0.9858,-0.9981,-0.9982,-0.9983,0,-1.0447,-1.0376,-1.0319,-1.03,-1.0252,-1.0224,-1.0203,-1.0166,-1.0138,-1.0097,-1.0077,-1.0031,-1.0005,-0.9967,-0.9948,-0.997,-0.9873,-0.9899,-0.9859,-0.9859,-0.9838,-0.9839,-0.9739,-0.9824,-0.9825,-0.9825,-0.9825,0,-1.0374,-1.0325,-1.0298,-1.0262,-1.0206,-1.0191,-1.0136,-1.0114,-1.0081,-1.004,-1.0036,-0.9996,-0.9975,-0.9931,-0.9916,-0.9854,-0.9842,-0.983,-0.9826,-0.9829,-0.983,-0.981,-0.9813,-0.9822,-0.9823,-0.9823,-0.9824,0,-1.0313,-1.0294,-1.023,-1.019,-1.0178,-1.0139,-1.0103,-1.0067,-1.0048,-0.9995,-0.9982,-0.9952,-0.99,-0.9878,-0.9814,-0.9803,-0.9731,-0.9733,-0.9745,-0.9743,-0.9703,-0.9706,-0.9585,-0.9567,-0.9667,-0.9666,-0.9665,0,-1.0267,-1.0229,-1.0184,-1.0156,-1.0134,-1.009,-1.0061,-1.0044,-1.0013,-0.9965,-0.9933,-0.9882,-0.984,-0.9757,-0.9728,-0.9678,-0.9676,-0.9637,-0.9668,-0.9672,-0.9672,-0.9673,-0.9668,-0.963,-0.9629,-0.9629,-0.9628,0,-1.0185,-1.0177,-1.0136,-1.009,-1.0055,-1.0018,-0.9982,-0.9959,-0.9936,-0.9901,-0.9849,-0.9816,-0.9751,-0.9698,-0.9646,-0.9622,-0.9619,-0.9618,-0.9606,-0.9608,-0.9615,-0.9608,-0.9726,-0.9621,-0.9622,-0.9622,-0.9623,-0.9623,-1.0128,-1.0093,-1.0056,-1.0009,-0.998,-0.9946,-0.9909,-0.9886,-0.9842,-0.9788,-0.9781,-0.9724,-0.9683,-0.9613,-0.9586,-0.9539,-0.9549,-0.9532,-0.9527,-0.9522,-0.9518,-0.9625,-0.953,-0.953,-0.9531,-0.9531,-0.9531,0,-1.0044,-1.002,-0.9977,-0.9926,-0.9889,-0.9892,-0.9851,-0.9819,-0.9769,-0.9732,-0.9691,-0.9628,-0.9577,-0.9544,-0.9491,-0.946,-0.9457,-0.9446,-0.9447,-0.9441,-0.9515,-0.9529,-0.9449,-0.9449,-0.9449,-0.9449,-0.9449,-0.9449,-0.9996,-0.9936,-0.9923,-0.9848,-0.9823,-0.9768,-0.9744,-0.9711,-0.9681,-0.9613,-0.957,-0.9549,-0.9512,-0.9457,-0.9408,-0.94,-0.9379,-0.9367,-0.9358,-0.9428,-0.9436,-0.9444,-0.9458,-0.9364,-0.9363,-0.9288,-0.9287,-0.9287]}]]